Willimantic, CT

1:30 PM EDT on June 23, 2017 (GMT -0400)
Windham

Weather History for KIJD - November, 2012

Change the Weather History Date:

Wednesday, November 7, 2012

  Actual Average Record
Temperature  
Mean Temperature 32 °F -  
Max Temperature 37 °F 52 °F 72 °F (1959)
Min Temperature 27 °F 31 °F 16 °F (1960)
Degree Days  
Heating Degree Days 33    
Moisture  
Dew Point 26 °F    
Average Humidity 76    
Maximum Humidity 87    
Minimum Humidity 59    
Precipitation  
Precipitation 0.13 in - - ()
Sea Level Pressure  
Sea Level Pressure 29.87 in    
Wind  
Wind Speed 12 mph (NNE)    
Max Wind Speed 21 mph    
Max Gust Speed 32 mph    
Visibility 4 miles    
Events Fog , Snow    
Averages and records for this station are not official NWS values.
T = Trace of Precipitation, MM = Missing Value Source: NWS Daily Summary

Daily Weather History Graph

Daily Weather History Graph

Search for Another Location

Airport or City:

Trip Planner

Search our weather history database for the weather conditions in past years. The results will help you decide how hot, cold, wet, or windy it might be!

Date:

Astronomy

Nov. 07, 2012 Rise Set
Actual Time 6:28 AM EST 4:35 PM EST
Civil Twilight 5:59 AM EST 5:04 PM EST
Nautical Twilight 5:26 AM EST 5:38 PM EST
Astronomical Twilight 4:53 AM EST 6:10 PM EST
Moon No Moon Rise 12:48 PM EST (11/7)
Length of Visible Light 11h 05m
Length of Day
10h 06m
Last Quarter, 43% of the Moon is Illuminated
Nov 7
Last Quarter
Nov 13
New
Nov 20
First Quarter
Nov 28
Full
Dec 6
Last Quarter

Hourly Weather History & Observations

Time (EST) Temp. Windchill Dew Point Humidity Pressure Visibility Wind Dir Wind Speed Gust Speed Precip Events Conditions
12:52 AM 27.0 °F - 19.9 °F 75% 30.14 in 10.0 mi Calm Calm - N/A   Clear
1:52 AM 30.0 °F 26.5 °F 21.0 °F 69% 30.12 in 10.0 mi NNE 3.5 mph - N/A   Clear
2:52 AM 30.9 °F 25.2 °F 21.9 °F 69% 30.11 in 10.0 mi North 5.8 mph - N/A   Clear
3:52 AM 35.1 °F 30.1 °F 25.0 °F 67% 30.05 in 10.0 mi NNE 5.8 mph - N/A   Mostly Cloudy
4:52 AM 36.0 °F 27.1 °F 25.0 °F 64% 30.04 in 10.0 mi NNE 13.8 mph 19.6 mph N/A   Partly Cloudy
6:52 AM 37.0 °F 28.9 °F 24.1 °F 59% 29.99 in 10.0 mi NNE 12.7 mph 21.9 mph N/A   Clear
7:52 AM 37.0 °F 29.8 °F 25.0 °F 62% 30.00 in 10.0 mi NNE 10.4 mph 26.5 mph N/A   Scattered Clouds
8:52 AM 37.9 °F 30.0 °F 25.0 °F 60% 29.98 in 10.0 mi NNE 12.7 mph 24.2 mph N/A   Overcast
9:52 AM 37.9 °F 30.5 °F 25.0 °F 60% 29.96 in 10.0 mi NNE 11.5 mph 24.2 mph N/A   Overcast
10:17 AM 37.4 °F 28.2 °F 24.8 °F 60% 29.95 in 10.0 mi NNE 16.1 mph - N/A   Overcast
10:32 AM 37.4 °F 28.5 °F 24.8 °F 60% 29.95 in 10.0 mi NNE 15.0 mph 27.6 mph N/A   Overcast
10:52 AM 37.9 °F 28.5 °F 26.1 °F 62% 29.94 in 10.0 mi NNE 17.3 mph 26.5 mph N/A   Overcast
11:35 AM 37.4 °F 28.5 °F 26.6 °F 65% 29.90 in 2.5 mi NE 15.0 mph 26.5 mph 0.00 in Snow Light Snow
11:44 AM 35.6 °F 25.9 °F 28.4 °F 75% 29.89 in 1.8 mi NNE 16.1 mph 25.3 mph 0.00 in Snow Light Snow
11:52 AM 35.1 °F 25.5 °F 28.9 °F 78% 29.90 in 1.0 mi NNE 15.0 mph 25.3 mph 0.00 in Snow Light Snow
12:21 PM 35.6 °F 25.2 °F 28.4 °F 75% 29.89 in 2.5 mi NNE 18.4 mph 25.3 mph 0.03 in Snow Light Snow
12:38 PM 35.6 °F 25.5 °F 28.4 °F 75% 29.87 in 4.0 mi NNE 17.3 mph - 0.03 in Snow Light Snow
12:52 PM 36.0 °F 26.0 °F 28.0 °F 73% 29.87 in 5.0 mi NNE 17.3 mph 26.5 mph 0.03 in Snow Light Snow
1:13 PM 35.6 °F 24.5 °F 28.4 °F 75% 29.86 in 2.5 mi NNE 20.7 mph 32.2 mph 0.00 in Snow Light Snow
1:28 PM 35.6 °F 26.2 °F 28.4 °F 75% 29.85 in 3.0 mi NNE 15.0 mph 26.5 mph 0.00 in Snow Light Snow
2:40 PM 33.8 °F 22.2 °F 26.6 °F 75% 29.84 in 2.0 mi NNE 20.7 mph 27.6 mph 0.00 in Snow Light Snow
2:50 PM 33.8 °F 24.3 °F 26.6 °F 75% 29.83 in 1.0 mi North 13.8 mph 28.8 mph 0.00 in Snow Light Snow
2:52 PM 33.1 °F 23.4 °F 27.0 °F 78% 29.84 in 0.8 mi North 13.8 mph 28.8 mph 0.00 in Snow Light Snow
2:58 PM 33.8 °F 24.3 °F 28.4 °F 81% 29.83 in 0.5 mi NNE 13.8 mph 25.3 mph 0.00 in Snow Snow
3:06 PM 32.0 °F 21.6 °F 28.4 °F 87% 29.83 in 0.2 mi NNE 15.0 mph 25.3 mph 0.01 in Fog , Snow Heavy Snow
3:52 PM 30.9 °F 20.7 °F 27.0 °F 85% 29.84 in 0.2 mi North 13.8 mph 25.3 mph 0.03 in Fog , Snow Snow
4:07 PM 30.2 °F 20.2 °F 26.6 °F 86% 29.82 in 0.5 mi North 12.7 mph 23.0 mph 0.01 in Fog , Snow Snow
4:17 PM 30.2 °F 19.8 °F 26.6 °F 86% 29.82 in 0.5 mi NNE 13.8 mph 24.2 mph 0.01 in Fog , Snow Snow
4:24 PM 30.2 °F 19.8 °F 26.6 °F 86% 29.82 in 0.5 mi North 13.8 mph 28.8 mph 0.02 in Fog , Snow Snow
4:43 PM 30.2 °F 19.8 °F 26.6 °F 86% 29.83 in 1.0 mi North 13.8 mph - 0.02 in Snow Light Snow
4:52 PM 30.9 °F 20.7 °F 27.0 °F 85% 29.83 in 1.2 mi North 13.8 mph 21.9 mph 0.02 in Snow Light Snow
5:52 PM 32.0 °F 20.5 °F 27.0 °F 82% 29.82 in 1.2 mi North 18.4 mph 26.5 mph 0.01 in Snow Light Snow
6:28 PM 32.0 °F 20.1 °F 26.6 °F 80% 29.81 in 0.8 mi NNE 19.6 mph 31.1 mph 0.00 in Snow Light Snow
6:47 PM 30.2 °F 18.9 °F 26.6 °F 86% 29.81 in 1.0 mi North 16.1 mph 32.2 mph 0.00 in Snow Light Snow
6:52 PM 30.9 °F 19.8 °F 26.1 °F 82% 29.82 in 1.0 mi North 16.1 mph 26.5 mph 0.01 in Snow Light Snow
7:32 PM 30.2 °F 18.5 °F 26.6 °F 86% 29.80 in 0.8 mi NNE 17.3 mph 26.5 mph 0.00 in Snow Light Snow
7:52 PM 30.9 °F 19.8 °F 26.1 °F 82% 29.80 in 0.5 mi North 16.1 mph 32.2 mph 0.01 in Snow Snow
8:25 PM 30.2 °F 19.3 °F 26.6 °F 86% 29.79 in 1.0 mi North 15.0 mph 26.5 mph 0.01 in Snow Light Snow
8:41 PM 30.2 °F 17.8 °F 26.6 °F 86% 29.78 in 2.0 mi North 19.6 mph 27.6 mph 0.01 in Snow Light Snow
8:52 PM 30.9 °F 20.7 °F 26.1 °F 82% 29.78 in 2.0 mi NNE 13.8 mph 26.5 mph 0.01 in Snow Light Snow
9:00 PM 30.2 °F 18.5 °F 26.6 °F 86% 29.77 in 1.8 mi North 17.3 mph 27.6 mph 0.00 in Snow Light Snow
9:26 PM 30.2 °F 18.1 °F 26.6 °F 86% 29.77 in 3.0 mi North 18.4 mph 28.8 mph 0.00 in Snow Light Snow
9:52 PM 32.0 °F 19.8 °F 26.1 °F 79% 29.76 in 6.0 mi North 20.7 mph 29.9 mph 0.00 in Snow Light Snow
10:52 PM 32.0 °F 21.2 °F 26.1 °F 79% 29.73 in 2.5 mi North 16.1 mph 28.8 mph 0.00 in Snow Light Snow
11:16 PM 32.0 °F 21.2 °F 26.6 °F 80% 29.73 in 4.0 mi North 16.1 mph 21.9 mph 0.00 in Snow Light Snow
11:52 PM 32.0 °F 21.2 °F 27.0 °F 82% 29.72 in 2.5 mi North 16.1 mph 25.3 mph 0.01 in Snow Light Snow